Location: Johnson City
(36.3130°N, 82.3540°W)
Time: 22:37:03
(UTC-04:00)

Tiangong 2 - Visible Passes

Search period start: 24 July 2017 00:00
Search period end: 03 August 2017 00:00
Orbit: 392 x 394 km, 42.8° (Epoch: 24 July)

Date Brightness Start Highest point End Pass type
(mag) Time Alt. Az. Time Alt. Az. Time Alt. Az.
24 Jul 2.4 21:19:00 10° NW 21:22:00 35° NNE 21:25:00 10° E visible
24 Jul 2.8 22:55:53 10° WNW 22:57:47 30° W 22:57:47 30° W visible
25 Jul 1.0 21:58:59 10° WNW 22:02:12 87° SSW 22:03:24 36° ESE visible
26 Jul 1.5 21:02:10 10° WNW 21:05:20 57° NNE 21:08:30 10° ESE visible
26 Jul 3.1 22:39:29 10° W 22:41:25 21° SW 22:41:25 21° SW visible
27 Jul 1.9 21:42:19 10° WNW 21:45:21 40° SSW 21:47:06 21° SSE visible
28 Jul 3.8 22:24:20 10° SW 22:25:02 11° SW 22:25:14 11° SW visible
29 Jul 3.2 21:25:59 10° W 21:28:22 19° SW 21:30:45 10° S visible
